| time (UTC) | temp C | wind direction | speed KPH | gust KPH | rain 1hr cm | rain 24hr cm | rain mn cm | humidity % | barometer mb |
| 20260906014623 | 21 | 130 | 0.0 | 1.6 | 0.00 | 0.00 | 0.00 | 91 | 1049.2 |
| 20260906014119 | 21 | 126 | 0.0 | 0.0 | 0.00 | 0.00 | 0.00 | 90 | 1049.1 |
| 20260906013614 | 22 | 126 | 0.0 | 0.0 | 0.00 | 0.00 | 0.00 | 90 | 1049.0 |
| 20260906013110 | 22 | 131 | 0.0 | 0.0 | 0.00 | 0.00 | 0.00 | 88 | 1048.7 |
| 20260906012605 | 22 | 130 | 0.0 | 0.0 | 0.00 | 0.00 | 0.00 | 88 | 1048.1 |
| 20260906012105 | 22 | 122 | 0.0 | 0.0 | 0.00 | 0.00 | 0.00 | 87 | 1048.1 |
| 20260906011601 | 22 | 130 | 0.0 | 0.0 | 0.00 | 0.00 | 0.00 | 86 | 1047.7 |
| 20260906011055 | 22 | 132 | 0.0 | 1.6 | 0.00 | 0.00 | 0.00 | 86 | 1047.8 |
| 20260906010550 | 23 | 131 | 0.0 | 1.6 | 0.00 | 0.00 | 0.00 | 85 | 1047.8 |
| 20260906010047 | 23 | 103 | 1.6 | 1.6 | 0.00 | 0.00 | 0.00 | 84 | 1047.5 |
| 20260906005546 | 23 | 145 | 0.0 | 1.6 | 0.00 | 0.00 | 0.00 | 83 | 1047.6 |
| 20260906005045 | 23 | 147 | 0.0 | 0.0 | 0.00 | 0.00 | 0.00 | 82 | 1047.8 |
| 20260906004544 | 24 | 146 | 0.0 | 1.6 | 0.00 | 0.00 | 0.00 | 81 | 1047.3 |
| 20260906004039 | 24 | 148 | 0.0 | 0.0 | 0.00 | 0.00 | 0.00 | 80 | 1047.4 |
| 20260906003534 | 25 | 154 | 0.0 | 1.6 | 0.00 | 0.00 | 0.00 | 79 | 1047.0 |
| 20260906003031 | 25 | 147 | 0.0 | 3.2 | 0.00 | 0.00 | 0.00 | 78 | 1047.2 |
| 20260906002525 | 25 | 144 | 0.0 | 3.2 | 0.00 | 0.00 | 0.00 | 78 | 1047.0 |
| 20260906002020 | 25 | 70 | 3.2 | 3.2 | 0.00 | 0.00 | 0.00 | 77 | 1046.9 |
| 20260906001515 | 25 | 149 | 0.0 | 3.2 | 0.00 | 0.00 | 0.00 | 77 | 1046.9 |
| 20260906001009 | 25 | 129 | 1.6 | 3.2 | 0.00 | 0.00 | 0.00 | 76 | 1047.0 |
| 20260906000506 | 25 | 135 | 0.0 | 3.2 | 0.00 | 0.00 | 0.00 | 75 | 1047.2 |
| 20260906000006 | 26 | 113 | 0.0 | 3.2 | 0.00 | 0.00 | 0.00 | 74 | 1047.1 |
| 20260905235500 | 26 | 66 | 4.8 | 8.0 | 0.00 | 0.00 | 0.00 | 73 | 1046.8 |
| 20260905234955 | 26 | 112 | 1.6 | 1.6 | 0.00 | 0.00 | 0.00 | 73 | 1046.8 |
| 20260905234450 | 26 | 126 | 1.6 | 3.2 | 0.00 | 0.00 | 0.00 | 72 | 1047.1 |
| 20260905233944 | 26 | 70 | 4.8 | 8.0 | 0.00 | 0.00 | 0.00 | 72 | 1047.3 |
| 20260905233440 | 26 | 155 | 1.6 | 1.6 | 0.00 | 0.00 | 0.00 | 72 | 1047.5 |
| 20260905232939 | 26 | 159 | 0.0 | 1.6 | 0.00 | 0.00 | 0.00 | 72 | 1047.3 |
| 20260905232435 | 26 | 52 | 1.6 | 3.2 | 0.00 | 0.00 | 0.00 | 71 | 1047.5 |
| 20260905231930 | 27 | 142 | 0.0 | 1.6 | 0.00 | 0.00 | 0.00 | 69 | 1047.3 |
| 20260905231426 | 27 | 155 | 4.8 | 8.0 | 0.00 | 0.00 | 0.00 | 69 | 1047.4 |
| 20260905230917 | 27 | 81 | 3.2 | 3.2 | 0.00 | 0.00 | 0.00 | 69 | 1047.6 |
| 20260905230414 | 27 | 146 | 0.0 | 4.8 | 0.00 | 0.00 | 0.00 | 70 | 1047.6 |
| 20260905225908 | 27 | 71 | 1.6 | 3.2 | 0.00 | 0.00 | 0.00 | 69 | 1047.8 |
| 20260905225403 | 27 | 158 | 0.0 | 3.2 | 0.00 | 0.00 | 0.00 | 70 | 1047.8 |
| 20260905224858 | 27 | 48 | 4.8 | 4.8 | 0.00 | 0.00 | 0.00 | 68 | 1047.8 |
| 20260905224353 | 27 | 144 | 0.0 | 1.6 | 0.00 | 0.00 | 0.00 | 69 | 1048.1 |
| 20260905223847 | 27 | 149 | 0.0 | 3.2 | 0.00 | 0.00 | 0.00 | 69 | 1047.7 |
| 20260905223346 | 27 | 141 | 3.2 | 3.2 | 0.00 | 0.00 | 0.00 | 68 | 1047.7 |
| 20260905222840 | 27 | 149 | 0.0 | 4.8 | 0.00 | 0.00 | 0.00 | 69 | 1047.8 |
| 20260905222339 | 27 | 117 | 3.2 | 3.2 | 0.00 | 0.00 | 0.00 | 69 | 1047.8 |
| 20260905221835 | 27 | 67 | 6.4 | 8.0 | 0.00 | 0.00 | 0.00 | 69 | 1047.9 |
| 20260905221332 | 28 | 79 | 4.8 | 4.8 | 0.00 | 0.00 | 0.00 | 67 | 1047.9 |
| 20260905220827 | 28 | 122 | 0.0 | 1.6 | 0.00 | 0.00 | 0.00 | 68 | 1047.8 |
| 20260905220323 | 28 | 148 | 1.6 | 3.2 | 0.00 | 0.00 | 0.00 | 69 | 1048.0 |
| 20260905215822 | 27 | 159 | 1.6 | 8.0 | 0.00 | 0.00 | 0.00 | 70 | 1047.6 |
| 20260905215318 | 28 | 96 | 3.2 | 3.2 | 0.00 | 0.00 | 0.00 | 69 | 1047.7 |
| 20260905214815 | 27 | 151 | 1.6 | 3.2 | 0.00 | 0.00 | 0.00 | 71 | 1047.9 |
| 20260905214310 | 27 | 180 | 1.6 | 4.8 | 0.00 | 0.00 | 0.00 | 70 | 1048.0 |
| 20260905213804 | 28 | 330 | 1.6 | 4.8 | 0.00 | 0.00 | 0.00 | 71 | 1048.0 |
| 20260905213300 | 28 | 215 | 3.2 | 8.0 | 0.00 | 0.00 | 0.00 | 70 | 1048.0 |
| 20260905212755 | 27 | 118 | 3.2 | 3.2 | 0.00 | 0.00 | 0.00 | 71 | 1048.2 |
| 20260905212254 | 27 | 136 | 4.8 | 9.7 | 0.00 | 0.00 | 0.00 | 72 | 1048.5 |
| 20260905211749 | 27 | 163 | 0.0 | 1.6 | 0.00 | 0.00 | 0.00 | 69 | 1048.6 |
| 20260905211244 | 27 | 135 | 1.6 | 3.2 | 0.00 | 0.00 | 0.00 | 73 | 1048.5 |
| 20260905210740 | 27 | 137 | 1.6 | 3.2 | 0.00 | 0.00 | 0.00 | 72 | 1048.7 |
| 20260905210235 | 27 | 164 | 1.6 | 4.8 | 0.00 | 0.00 | 0.00 | 72 | 1048.7 |
| 20260905205734 | 27 | 157 | 1.6 | 3.2 | 0.00 | 0.00 | 0.00 | 70 | 1048.9 |
| 20260905205229 | 27 | 111 | 1.6 | 4.8 | 0.00 | 0.00 | 0.00 | 73 | 1049.2 |
| 20260905204728 | 27 | 156 | 1.6 | 1.6 | 0.00 | 0.00 | 0.00 | 73 | 1048.9 |
| 20260905204224 | 27 | 163 | 1.6 | 3.2 | 0.00 | 0.00 | 0.00 | 73 | 1049.2 |
| 20260905203723 | 27 | 113 | 1.6 | 1.6 | 0.00 | 0.00 | 0.00 | 74 | 1049.1 |
| 20260905203219 | 27 | 85 | 3.2 | 4.8 | 0.00 | 0.00 | 0.00 | 73 | 1049.2 |
| 20260905202714 | 27 | 158 | 0.0 | 1.6 | 0.00 | 0.00 | 0.00 | 73 | 1049.2 |
| 20260905202209 | 27 | 270 | 3.2 | 3.2 | 0.00 | 0.00 | 0.00 | 73 | 1049.5 |
| 20260905201704 | 27 | 136 | 0.0 | 1.6 | 0.00 | 0.00 | 0.00 | 74 | 1049.6 |
| 20260905201159 | 26 | 109 | 1.6 | 4.8 | 0.00 | 0.00 | 0.00 | 74 | 1049.6 |
| 20260905200654 | 27 | 179 | 3.2 | 4.8 | 0.00 | 0.00 | 0.00 | 72 | 1049.6 |
| 20260905200149 | 26 | 134 | 1.6 | 4.8 | 0.00 | 0.00 | 0.00 | 75 | 1049.8 |
| 20260905195647 | 26 | 86 | 4.8 | 8.0 | 0.00 | 0.00 | 0.00 | 76 | 1049.8 |
| 20260905195142 | 27 | 50 | 4.8 | 4.8 | 0.00 | 0.00 | 0.00 | 71 | 1049.6 |
| 20260905194637 | 26 | 115 | 1.6 | 4.8 | 0.00 | 0.00 | 0.00 | 75 | 1049.7 |
| 20260905194132 | 26 | 80 | 1.6 | 3.2 | 0.00 | 0.00 | 0.00 | 75 | 1049.7 |
| 20260905193627 | 26 | 134 | 0.0 | 3.2 | 0.00 | 0.00 | 0.00 | 76 | 1049.8 |
| 20260905193121 | 26 | 143 | 1.6 | 3.2 | 0.00 | 0.00 | 0.00 | 75 | 1049.6 |
| 20260905192617 | 26 | 49 | 3.2 | 4.8 | 0.00 | 0.00 | 0.00 | 74 | 1049.5 |
| 20260905192113 | 26 | 106 | 1.6 | 3.2 | 0.00 | 0.00 | 0.00 | 77 | 1049.7 |
| 20260905191612 | 26 | 118 | 0.0 | 1.6 | 0.00 | 0.00 | 0.00 | 76 | 1049.8 |
| 20260905191111 | 25 | 183 | 1.6 | 1.6 | 0.00 | 0.00 | 0.00 | 79 | 1049.8 |
| 20260905190609 | 25 | 141 | 1.6 | 3.2 | 0.00 | 0.00 | 0.00 | 79 | 1049.8 |
| 20260905190108 | 25 | 132 | 0.0 | 4.8 | 0.00 | 0.00 | 0.00 | 79 | 1049.6 |
| 20260905185607 | 25 | 104 | 1.6 | 3.2 | 0.00 | 0.00 | 0.00 | 79 | 1049.7 |
| 20260905185102 | 25 | 155 | 1.6 | 4.8 | 0.00 | 0.00 | 0.00 | 80 | 1049.6 |
| 20260905184557 | 24 | 137 | 0.0 | 1.6 | 0.00 | 0.00 | 0.00 | 82 | 1049.9 |
| 20260905184055 | 25 | 43 | 3.2 | 4.8 | 0.00 | 0.00 | 0.00 | 80 | 1049.9 |
| 20260905183554 | 25 | 80 | 1.6 | 3.2 | 0.00 | 0.00 | 0.00 | 80 | 1049.6 |
| 20260905183045 | 24 | 149 | 0.0 | 3.2 | 0.00 | 0.00 | 0.00 | 82 | 1049.9 |
| 20260905182544 | 24 | 355 | 1.6 | 3.2 | 0.00 | 0.00 | 0.00 | 82 | 1049.6 |
| 20260905182038 | 24 | 92 | 4.8 | 4.8 | 0.00 | 0.00 | 0.00 | 81 | 1049.6 |
| 20260905181533 | 25 | 22 | 3.2 | 3.2 | 0.00 | 0.00 | 0.00 | 81 | 1049.7 |
| 20260905181032 | 24 | 107 | 3.2 | 8.0 | 0.00 | 0.00 | 0.00 | 82 | 1049.8 |
| 20260905180527 | 23 | 140 | 0.0 | 1.6 | 0.00 | 0.00 | 0.00 | 82 | 1050.1 |
| 20260905180023 | 23 | 119 | 0.0 | 1.6 | 0.00 | 0.00 | 0.00 | 85 | 1050.0 |
| 20260905175522 | 22 | 100 | 1.6 | 3.2 | 0.00 | 0.00 | 0.00 | 87 | 1050.0 |
| 20260905175018 | 23 | 82 | 1.6 | 4.8 | 0.00 | 0.00 | 0.00 | 86 | 1049.9 |
| 20260905174513 | 23 | 135 | 1.6 | 4.8 | 0.00 | 0.00 | 0.00 | 85 | 1050.0 |
| 20260905174009 | 23 | 24 | 3.2 | 11.3 | 0.00 | 0.00 | 0.00 | 85 | 1049.8 |
| 20260905173505 | 23 | 142 | 1.6 | 3.2 | 0.00 | 0.00 | 0.00 | 83 | 1049.8 |
| 20260905173000 | 23 | 172 | 4.8 | 9.7 | 0.00 | 0.00 | 0.00 | 85 | 1050.1 |
| 20260905172458 | 23 | 71 | 1.6 | 4.8 | 0.00 | 0.00 | 0.00 | 85 | 1049.8 |
| 20260905171954 | 22 | 48 | 4.8 | 9.7 | 0.00 | 0.00 | 0.00 | 87 | 1050.3 |
| 20260905171450 | 22 | 161 | 1.6 | 4.8 | 0.00 | 0.00 | 0.00 | 87 | 1050.5 |
| 20260905170946 | 22 | 72 | 4.8 | 4.8 | 0.00 | 0.00 | 0.00 | 86 | 1050.7 |
| 20260905170442 | 22 | 156 | 0.0 | 1.6 | 0.00 | 0.00 | 0.00 | 87 | 1050.5 |
| 20260905165941 | 22 | 154 | 0.0 | 1.6 | 0.00 | 0.00 | 0.00 | 86 | 1050.6 |
| 20260905165436 | 22 | 130 | 0.0 | 1.6 | 0.00 | 0.00 | 0.00 | 87 | 1050.5 |
| 20260905164932 | 22 | 136 | 0.0 | 3.2 | 0.00 | 0.00 | 0.00 | 87 | 1050.7 |
| 20260905164426 | 22 | 147 | 0.0 | 1.6 | 0.00 | 0.00 | 0.00 | 87 | 1050.4 |
| 20260905163921 | 22 | 130 | 1.6 | 1.6 | 0.00 | 0.00 | 0.00 | 89 | 1050.6 |
| 20260905163418 | 22 | 128 | 1.6 | 3.2 | 0.00 | 0.00 | 0.00 | 89 | 1050.3 |
| 20260905162914 | 22 | 90 | 1.6 | 1.6 | 0.00 | 0.00 | 0.00 | 89 | 1050.7 |
| 20260905162408 | 22 | 162 | 1.6 | 3.2 | 0.00 | 0.00 | 0.00 | 89 | 1050.9 |
| 20260905161903 | 21 | 129 | 0.0 | 3.2 | 0.00 | 0.00 | 0.00 | 89 | 1050.4 |
| 20260905161356 | 22 | 135 | 0.0 | 1.6 | 0.00 | 0.00 | 0.00 | 89 | 1050.3 |
| 20260905160855 | 21 | 55 | 1.6 | 3.2 | 0.00 | 0.00 | 0.00 | 90 | 1050.1 |
| 20260905160349 | 22 | 145 | 1.6 | 4.8 | 0.00 | 0.00 | 0.00 | 89 | 1050.4 |
| 20260905155849 | 21 | 106 | 1.6 | 3.2 | 0.00 | 0.00 | 0.00 | 91 | 1050.2 |
| 20260905155343 | 21 | 79 | 0.0 | 4.8 | 0.00 | 0.00 | 0.00 | 91 | 1050.1 |
| 20260905154842 | 21 | 111 | 3.2 | 3.2 | 0.00 | 0.00 | 0.00 | 91 | 1050.1 |
| 20260905154338 | 21 | 142 | 0.0 | 4.8 | 0.00 | 0.00 | 0.00 | 92 | 1050.5 |
| 20260905153833 | 21 | 83 | 1.6 | 3.2 | 0.00 | 0.00 | 0.00 | 91 | 1050.4 |
| 20260905153330 | 21 | 136 | 0.0 | 3.2 | 0.00 | 0.00 | 0.00 | 93 | 1050.2 |
| 20260905152829 | 21 | 87 | 4.8 | 4.8 | 0.00 | 0.00 | 0.00 | 92 | 1050.3 |
| 20260905152328 | 20 | 133 | 0.0 | 3.2 | 0.00 | 0.00 | 0.00 | 93 | 1050.2 |
| 20260905151824 | 20 | 68 | 1.6 | 3.2 | 0.00 | 0.00 | 0.00 | 93 | 1050.2 |
| 20260905151319 | 20 | 91 | 1.6 | 1.6 | 0.00 | 0.00 | 0.00 | 94 | 1050.4 |
| 20260905150819 | 20 | 123 | 0.0 | 1.6 | 0.00 | 0.00 | 0.00 | 95 | 1050.4 |
| 20260905150313 | 20 | 140 | 0.0 | 1.6 | 0.00 | 0.00 | 0.00 | 95 | 1050.2 |
| 20260905145810 | 20 | 113 | 1.6 | 1.6 | 0.00 | 0.00 | 0.00 | 95 | 1050.3 |
| 20260905145306 | 20 | 134 | 1.6 | 1.6 | 0.00 | 0.00 | 0.00 | 95 | 1050.1 |
| 20260905144803 | 20 | 136 | 0.0 | 1.6 | 0.00 | 0.00 | 0.00 | 96 | 1050.2 |
| 20260905144300 | 20 | 127 | 0.0 | 1.6 | 0.00 | 0.00 | 0.00 | 96 | 1050.1 |
| 20260905143758 | 20 | 137 | 0.0 | 0.0 | 0.00 | 0.00 | 0.00 | 96 | 1050.3 |
| 20260905143253 | 20 | 140 | 0.0 | 3.2 | 0.00 | 0.00 | 0.00 | 97 | 1050.5 |
| 20260905142751 | 20 | 143 | 0.0 | 0.0 | 0.00 | 0.00 | 0.00 | 97 | 1050.4 |
| 20260905142246 | 19 | 154 | 0.0 | 1.6 | 0.00 | 0.00 | 0.00 | 97 | 1050.4 |
| 20260905141742 | 19 | 107 | 0.0 | 1.6 | 0.00 | 0.00 | 0.00 | 97 | 1050.5 |
| 20260905141238 | 19 | 129 | 0.0 | 1.6 | 0.00 | 0.00 | 0.00 | 97 | 1050.3 |
| 20260905140733 | 19 | 156 | 1.6 | 1.6 | 0.00 | 0.00 | 0.00 | 98 | 1050.0 |
| 20260905140233 | 19 | 136 | 0.0 | 1.6 | 0.00 | 0.00 | 0.00 | 99 | 1049.9 |
| 20260905135726 | 18 | 128 | 0.0 | 0.0 | 0.00 | 0.00 | 0.00 | 99 | 1049.8 |
| 20260905135222 | 18 | 97 | 3.2 | 3.2 | 0.00 | 0.00 | 0.00 | 99 | 1049.8 |
| 20260905134721 | 18 | 135 | 0.0 | 1.6 | 0.00 | 0.00 | 0.00 | 99 | 1049.8 |
| 20260905134221 | 18 | 148 | 0.0 | 1.6 | 0.00 | 0.00 | 0.00 | 99 | 1049.6 |
| 20260905133716 | 18 | 139 | 0.0 | 0.0 | 0.00 | 0.00 | 0.00 | 99 | 1049.7 |
| 20260905133211 | 18 | 69 | 3.2 | 4.8 | 0.00 | 0.00 | 0.00 | 99 | 1049.3 |
| 20260905132710 | 18 | 114 | 1.6 | 1.6 | 0.00 | 0.00 | 0.00 | 99 | 1049.1 |
| 20260905132206 | 18 | 140 | 0.0 | 1.6 | 0.00 | 0.00 | 0.00 | 99 | 1049.2 |
| 20260905131701 | 18 | 134 | 0.0 | 1.6 | 0.00 | 0.00 | 0.00 | 99 | 1049.1 |
| 20260905131155 | 18 | 84 | 1.6 | 3.2 | 0.00 | 0.00 | 0.00 | 99 | 1049.3 |
| 20260905130650 | 18 | 113 | 3.2 | 3.2 | 0.00 | 0.00 | 0.00 | 99 | 1048.9 |
| 20260905130150 | 17 | 132 | 0.0 | 1.6 | 0.00 | 0.00 | 0.00 | 99 | 1048.8 |
| 20260905125644 | 17 | 122 | 0.0 | 3.2 | 0.00 | 0.00 | 0.00 | 99 | 1048.8 |
| 20260905125140 | 17 | 117 | 0.0 | 1.6 | 0.00 | 0.00 | 0.00 | 99 | 1049.0 |
| 20260905124636 | 17 | 122 | 0.0 | 0.0 | 0.00 | 0.00 | 0.00 | 99 | 1049.1 |
| 20260905124132 | 17 | 116 | 0.0 | 1.6 | 0.00 | 0.00 | 0.00 | 99 | 1049.1 |
| 20260905123627 | 17 | 117 | 0.0 | 0.0 | 0.00 | 0.00 | 0.00 | 99 | 1049.2 |
| 20260905123124 | 17 | 117 | 0.0 | 1.6 | 0.00 | 0.00 | 0.00 | 99 | 1049.1 |
| 20260905122618 | 17 | 117 | 0.0 | 0.0 | 0.00 | 0.00 | 0.00 | 99 | 1049.3 |
| 20260905122113 | 17 | 119 | 0.0 | 0.0 | 0.00 | 0.00 | 0.00 | 99 | 1049.3 |
| 20260905121607 | 17 | 119 | 0.0 | 0.0 | 0.00 | 0.00 | 0.00 | 99 | 1049.4 |
| 20260905121103 | 17 | 119 | 0.0 | 0.0 | 0.00 | 0.00 | 0.00 | 99 | 1048.9 |
| 20260905120602 | 17 | 119 | 0.0 | 0.0 | 0.00 | 0.00 | 0.00 | 99 | 1049.1 |
| 20260905120057 | 17 | 119 | 0.0 | 1.6 | 0.00 | 0.00 | 0.00 | 99 | 1049.2 |
| 20260905115556 | 17 | 119 | 0.0 | 0.0 | 0.00 | 0.00 | 0.00 | 99 | 1049.0 |
| 20260905115051 | 17 | 119 | 0.0 | 0.0 | 0.00 | 0.00 | 0.00 | 99 | 1049.2 |
| 20260905114550 | 17 | 119 | 0.0 | 0.0 | 0.00 | 0.00 | 0.00 | 99 | 1049.1 |
| 20260905114049 | 17 | 119 | 0.0 | 0.0 | 0.00 | 0.00 | 0.00 | 99 | 1048.9 |
| 20260905113544 | 17 | 119 | 0.0 | 0.0 | 0.00 | 0.00 | 0.00 | 99 | 1048.9 |
| 20260905113039 | 17 | 119 | 0.0 | 1.6 | 0.00 | 0.00 | 0.00 | 99 | 1048.8 |
| 20260905112534 | 17 | 120 | 0.0 | 0.0 | 0.00 | 0.00 | 0.00 | 99 | 1048.7 |
| 20260905112030 | 17 | 119 | 0.0 | 0.0 | 0.00 | 0.00 | 0.00 | 99 | 1048.6 |
| 20260905111525 | 17 | 126 | 0.0 | 1.6 | 0.00 | 0.00 | 0.00 | 99 | 1048.4 |
| 20260905111024 | 17 | 145 | 0.0 | 0.0 | 0.00 | 0.00 | 0.00 | 99 | 1048.2 |
| 20260905110524 | 17 | 109 | 1.6 | 1.6 | 0.00 | 0.00 | 0.00 | 99 | 1048.5 |
| 20260905110019 | 17 | 127 | 0.0 | 0.0 | 0.00 | 0.00 | 0.00 | 99 | 1048.8 |
| 20260905105514 | 17 | 156 | 0.0 | 0.0 | 0.00 | 0.00 | 0.00 | 99 | 1048.7 |
| 20260905105013 | 17 | 155 | 0.0 | 0.0 | 0.00 | 0.00 | 0.00 | 99 | 1048.6 |
| 20260905104509 | 17 | 150 | 0.0 | 0.0 | 0.00 | 0.00 | 0.00 | 99 | 1048.2 |
| 20260905104008 | 17 | 120 | 0.0 | 1.6 | 0.00 | 0.00 | 0.00 | 99 | 1047.9 |
| 20260905103504 | 17 | 139 | 0.0 | 1.6 | 0.00 | 0.00 | 0.00 | 99 | 1048.0 |
| 20260905103000 | 17 | 108 | 0.0 | 0.0 | 0.00 | 0.00 | 0.00 | 99 | 1047.7 |
| 20260905102456 | 17 | 113 | 0.0 | 1.6 | 0.00 | 0.00 | 0.00 | 99 | 1047.7 |
| 20260905101951 | 17 | 126 | 0.0 | 0.0 | 0.00 | 0.00 | 0.00 | 99 | 1047.5 |
| 20260905101450 | 17 | 133 | 0.0 | 1.6 | 0.00 | 0.00 | 0.00 | 99 | 1047.5 |
| 20260905100949 | 17 | 96 | 1.6 | 1.6 | 0.00 | 0.00 | 0.00 | 99 | 1047.8 |
| 20260905100445 | 17 | 127 | 0.0 | 3.2 | 0.00 | 0.00 | 0.00 | 99 | 1047.6 |
| 20260905095943 | 17 | 146 | 0.0 | 3.2 | 0.00 | 0.00 | 0.00 | 99 | 1047.5 |
| 20260905095438 | 17 | 80 | 1.6 | 9.7 | 0.00 | 0.00 | 0.00 | 99 | 1047.5 |
| 20260905094933 | 17 | 149 | 0.0 | 3.2 | 0.00 | 0.00 | 0.00 | 99 | 1047.3 |
| 20260905094429 | 17 | 109 | 1.6 | 3.2 | 0.00 | 0.00 | 0.00 | 99 | 1047.6 |
| 20260905093928 | 17 | 124 | 0.0 | 1.6 | 0.00 | 0.00 | 0.00 | 99 | 1047.4 |
| 20260905093423 | 17 | 124 | 0.0 | 1.6 | 0.00 | 0.00 | 0.00 | 99 | 1047.5 |
| 20260905092919 | 17 | 56 | 1.6 | 4.8 | 0.00 | 0.00 | 0.00 | 99 | 1047.6 |
| 20260905092414 | 17 | 98 | 1.6 | 3.2 | 0.00 | 0.00 | 0.00 | 99 | 1047.9 |
| 20260905091908 | 17 | 139 | 0.0 | 1.6 | 0.00 | 0.00 | 0.00 | 99 | 1047.8 |
| 20260905091403 | 17 | 126 | 0.0 | 0.0 | 0.00 | 0.00 | 0.00 | 99 | 1048.0 |
| 20260905090902 | 17 | 146 | 0.0 | 1.6 | 0.00 | 0.00 | 0.00 | 99 | 1048.2 |
| 20260905090358 | 17 | 126 | 1.6 | 3.2 | 0.00 | 0.00 | 0.00 | 99 | 1048.2 |
| 20260905085857 | 17 | 66 | 1.6 | 3.2 | 0.00 | 0.00 | 0.00 | 99 | 1048.2 |
| 20260905085356 | 17 | 72 | 1.6 | 3.2 | 0.00 | 0.00 | 0.00 | 99 | 1048.5 |
| 20260905084853 | 17 | 112 | 1.6 | 4.8 | 0.00 | 0.00 | 0.00 | 99 | 1048.2 |
| 20260905084351 | 17 | 117 | 1.6 | 1.6 | 0.00 | 0.00 | 0.00 | 99 | 1048.2 |
| 20260905083847 | 17 | 199 | 1.6 | 1.6 | 0.00 | 0.00 | 0.00 | 99 | 1048.5 |
| 20260905083343 | 17 | 139 | 0.0 | 1.6 | 0.00 | 0.00 | 0.00 | 99 | 1048.6 |
| 20260905082838 | 17 | 144 | 0.0 | 1.6 | 0.00 | 0.00 | 0.00 | 99 | 1048.6 |
| 20260905082334 | 17 | 142 | 0.0 | 1.6 | 0.00 | 0.00 | 0.00 | 99 | 1048.5 |
| 20260905081829 | 17 | 148 | 1.6 | 3.2 | 0.00 | 0.00 | 0.00 | 99 | 1048.4 |
| 20260905081324 | 17 | 186 | 1.6 | 3.2 | 0.00 | 0.00 | 0.00 | 99 | 1048.5 |
| 20260905080823 | 17 | 145 | 1.6 | 3.2 | 0.00 | 0.00 | 0.00 | 99 | 1048.4 |
| 20260905080318 | 17 | 105 | 1.6 | 1.6 | 0.00 | 0.00 | 0.00 | 99 | 1048.5 |
| 20260905075817 | 17 | 126 | 0.0 | 1.6 | 0.00 | 0.00 | 0.00 | 99 | 1048.5 |
| 20260905075316 | 17 | 130 | 0.0 | 1.6 | 0.00 | 0.00 | 0.00 | 99 | 1048.5 |
| 20260905074815 | 17 | 88 | 3.2 | 3.2 | 0.00 | 0.00 | 0.00 | 99 | 1048.5 |
| 20260905074311 | 17 | 116 | 0.0 | 3.2 | 0.00 | 0.00 | 0.00 | 99 | 1048.6 |
| 20260905073806 | 17 | 88 | 1.6 | 1.6 | 0.00 | 0.00 | 0.00 | 99 | 1048.6 |
| 20260905073302 | 17 | 154 | 1.6 | 3.2 | 0.00 | 0.00 | 0.00 | 99 | 1048.7 |
| 20260905072756 | 17 | 125 | 0.0 | 0.0 | 0.00 | 0.00 | 0.00 | 99 | 1048.5 |
| 20260905072251 | 17 | 136 | 0.0 | 0.0 | 0.00 | 0.00 | 0.00 | 99 | 1048.5 |
| 20260905071748 | 17 | 127 | 0.0 | 3.2 | 0.00 | 0.00 | 0.00 | 99 | 1048.4 |
| 20260905071244 | 17 | 112 | 3.2 | 4.8 | 0.00 | 0.00 | 0.00 | 99 | 1048.7 |
| 20260905070738 | 17 | 123 | 1.6 | 1.6 | 0.00 | 0.00 | 0.00 | 99 | 1048.6 |
| 20260905070235 | 17 | 169 | 3.2 | 3.2 | 0.00 | 0.00 | 0.00 | 99 | 1048.2 |
| 20260905065733 | 17 | 98 | 3.2 | 4.8 | 0.00 | 0.00 | 0.00 | 99 | 1048.5 |
| 20260905065227 | 17 | 114 | 0.0 | 3.2 | 0.00 | 0.00 | 0.00 | 99 | 1048.4 |
| 20260905064722 | 17 | 110 | 0.0 | 1.6 | 0.00 | 0.00 | 0.00 | 99 | 1048.1 |
| 20260905064218 | 17 | 110 | 0.0 | 1.6 | 0.00 | 0.00 | 0.00 | 99 | 1048.2 |
| 20260905063716 | 17 | 110 | 1.6 | 1.6 | 0.00 | 0.00 | 0.00 | 99 | 1048.2 |
| 20260905063213 | 17 | 103 | 0.0 | 3.2 | 0.00 | 0.00 | 0.00 | 99 | 1048.1 |
| 20260905062708 | 17 | 109 | 1.6 | 1.6 | 0.00 | 0.00 | 0.00 | 99 | 1048.2 |
| 20260905062208 | 17 | 155 | 1.6 | 3.2 | 0.00 | 0.00 | 0.00 | 99 | 1048.1 |
| 20260905061708 | 17 | 136 | 0.0 | 1.6 | 0.00 | 0.00 | 0.00 | 99 | 1048.0 |
| 20260905061203 | 17 | 88 | 0.0 | 1.6 | 0.00 | 0.00 | 0.00 | 99 | 1047.9 |
| 20260905060657 | 17 | 103 | 0.0 | 3.2 | 0.00 | 0.00 | 0.00 | 98 | 1048.0 |
| 20260905060154 | 18 | 109 | 3.2 | 8.0 | 0.00 | 0.00 | 0.00 | 98 | 1047.9 |
| 20260905055653 | 18 | 120 | 1.6 | 4.8 | 0.00 | 0.00 | 0.00 | 98 | 1048.0 |
| 20260905055148 | 18 | 120 | 0.0 | 9.7 | 0.00 | 0.00 | 0.00 | 98 | 1048.2 |
| 20260905054644 | 18 | 124 | 0.0 | 1.6 | 0.00 | 0.00 | 0.00 | 97 | 1048.0 |
| 20260905054139 | 18 | 109 | 1.6 | 3.2 | 0.00 | 0.00 | 0.00 | 97 | 1048.2 |
| 20260905053639 | 18 | 104 | 1.6 | 3.2 | 0.00 | 0.00 | 0.00 | 97 | 1048.2 |
| 20260905053134 | 18 | 140 | 1.6 | 4.8 | 0.00 | 0.00 | 0.00 | 97 | 1048.1 |
| 20260905052633 | 18 | 127 | 1.6 | 1.6 | 0.00 | 0.00 | 0.00 | 97 | 1047.9 |
| 20260905052128 | 18 | 124 | 1.6 | 4.8 | 0.00 | 0.00 | 0.00 | 96 | 1047.8 |
| 20260905051623 | 18 | 103 | 0.0 | 1.6 | 0.00 | 0.00 | 0.00 | 96 | 1047.7 |
| 20260905051120 | 18 | 127 | 0.0 | 1.6 | 0.00 | 0.00 | 0.00 | 96 | 1047.8 |
| 20260905050610 | 18 | 148 | 0.0 | 4.8 | 0.00 | 0.00 | 0.00 | 96 | 1047.7 |
| 20260905050107 | 18 | 96 | 1.6 | 3.2 | 0.00 | 0.00 | 0.00 | 96 | 1047.6 |
| 20260905045606 | 18 | 116 | 1.6 | 3.2 | 0.00 | 0.00 | 0.00 | 96 | 1047.5 |
| 20260905045102 | 18 | 77 | 4.8 | 4.8 | 0.00 | 0.00 | 0.00 | 95 | 1047.7 |
| 20260905044601 | 18 | 106 | 1.6 | 4.8 | 0.00 | 0.00 | 0.00 | 95 | 1047.8 |
| 20260905044056 | 18 | 149 | 1.6 | 3.2 | 0.00 | 0.00 | 0.00 | 95 | 1047.8 |
| 20260905043555 | 18 | 56 | 0.0 | 4.8 | 0.00 | 0.00 | 0.00 | 95 | 1047.9 |
| 20260905043051 | 18 | 119 | 1.6 | 4.8 | 0.00 | 0.00 | 0.00 | 95 | 1048.1 |
| 20260905042549 | 18 | 126 | 0.0 | 3.2 | 0.00 | 0.00 | 0.00 | 95 | 1047.9 |
| 20260905042045 | 18 | 165 | 1.6 | 3.2 | 0.00 | 0.00 | 0.00 | 95 | 1047.9 |
| 20260905041540 | 18 | 77 | 4.8 | 4.8 | 0.00 | 0.00 | 0.00 | 95 | 1047.8 |
| 20260905041036 | 18 | 170 | 0.0 | 4.8 | 0.00 | 0.00 | 0.00 | 95 | 1047.9 |
| 20260905040535 | 18 | 111 | 1.6 | 3.2 | 0.00 | 0.00 | 0.00 | 94 | 1047.6 |
| 20260905040034 | 18 | 119 | 0.0 | 3.2 | 0.00 | 0.00 | 0.00 | 94 | 1047.6 |
| 20260905035529 | 18 | 61 | 4.8 | 4.8 | 0.00 | 0.00 | 0.00 | 94 | 1047.7 |
| 20260905035026 | 19 | 152 | 4.8 | 8.0 | 0.00 | 0.00 | 0.00 | 94 | 1047.8 |
| 20260905034522 | 18 | 110 | 1.6 | 4.8 | 0.00 | 0.00 | 0.00 | 94 | 1047.8 |
| 20260905034021 | 18 | 126 | 0.0 | 1.6 | 0.00 | 0.00 | 0.00 | 94 | 1047.9 |
| 20260905033515 | 18 | 82 | 1.6 | 1.6 | 0.00 | 0.00 | 0.00 | 94 | 1048.2 |
| 20260905033011 | 18 | 127 | 0.0 | 1.6 | 0.00 | 0.00 | 0.00 | 94 | 1048.0 |
| 20260905032506 | 18 | 38 | 1.6 | 3.2 | 0.00 | 0.00 | 0.00 | 94 | 1048.2 |
| 20260905032001 | 18 | 136 | 0.0 | 0.0 | 0.00 | 0.00 | 0.00 | 94 | 1048.1 |
| 20260905031456 | 18 | 98 | 1.6 | 1.6 | 0.00 | 0.00 | 0.00 | 94 | 1047.9 |
| 20260905030951 | 18 | 132 | 3.2 | 8.0 | 0.00 | 0.00 | 0.00 | 94 | 1047.9 |
| 20260905030447 | 18 | 87 | 1.6 | 3.2 | 0.00 | 0.00 | 0.00 | 94 | 1048.0 |
| 20260905025945 | 18 | 160 | 1.6 | 8.0 | 0.00 | 0.00 | 0.00 | 94 | 1047.8 |
| 20260905025441 | 18 | 49 | 1.6 | 3.2 | 0.00 | 0.00 | 0.00 | 94 | 1047.9 |
| 20260905024937 | 18 | 113 | 0.0 | 1.6 | 0.00 | 0.00 | 0.00 | 94 | 1047.6 |
| 20260905024432 | 18 | 134 | 0.0 | 0.0 | 0.00 | 0.00 | 0.00 | 94 | 1047.8 |
| 20260905023927 | 18 | 124 | 0.0 | 0.0 | 0.00 | 0.00 | 0.00 | 94 | 1047.7 |
| 20260905023422 | 18 | 123 | 0.0 | 1.6 | 0.00 | 0.00 | 0.00 | 94 | 1047.7 |
| 20260905022921 | 18 | 111 | 0.0 | 3.2 | 0.00 | 0.00 | 0.00 | 94 | 1047.6 |
| 20260905022417 | 18 | 143 | 0.0 | 1.6 | 0.00 | 0.00 | 0.00 | 94 | 1047.6 |
| 20260905021911 | 18 | 96 | 0.0 | 3.2 | 0.00 | 0.00 | 0.00 | 94 | 1047.6 |
| 20260905021406 | 18 | 152 | 0.0 | 3.2 | 0.00 | 0.00 | 0.00 | 94 | 1047.8 |
| 20260905020901 | 18 | 90 | 1.6 | 4.8 | 0.00 | 0.00 | 0.00 | 93 | 1047.6 |
| 20260905020400 | 18 | 59 | 3.2 | 3.2 | 0.00 | 0.00 | 0.00 | 93 | 1047.6 |
| 20260905015855 | 18 | 80 | 1.6 | 3.2 | 0.00 | 0.00 | 0.00 | 93 | 1047.5 |
| 20260905015354 | 18 | 127 | 0.0 | 3.2 | 0.00 | 0.00 | 0.00 | 92 | 1047.6 |